Tekamah, NE

10:21 AM CDT on September 29, 2016 (GMT -0500)
Tekamah

Weather History for KTQE - September, 2013

Change the Weather History Date:

Thursday, September 19, 2013

  Actual Average Record
Temperature  
Mean Temperature 68 °F -  
Max Temperature 79 °F 77 °F 96 °F (1948)
Min Temperature 55 °F 52 °F 31 °F (1991)
Cooling Degree Days 2    
Growing Degree Days 18 (Base 50)    
Moisture  
Dew Point 62 °F    
Average Humidity 73    
Maximum Humidity 90    
Minimum Humidity 47    
Precipitation  
Precipitation 0.12 in - - ()
Sea Level Pressure  
Sea Level Pressure 29.80 in    
Wind  
Wind Speed 9 mph (West)    
Max Wind Speed 23 mph    
Max Gust Speed 34 mph    
Visibility 10 miles    
Events Rain , Thunderstorm    
Averages and records for this station are not official NWS values.
T = Trace of Precipitation, MM = Missing Value Source: NWS Daily Summary

Daily Weather History Graph

Daily Weather History Graph

Search for Another Location

Airport or City:

Trip Planner

Search our weather history database for the weather conditions in past years. The results will help you decide how hot, cold, wet, or windy it might be!

Date:

Astronomy

Sep. 19, 2013 Rise Set
Actual Time 7:09 AM CDT 7:26 PM CDT
Civil Twilight 6:41 AM CDT 7:54 PM CDT
Nautical Twilight 6:08 AM CDT 8:27 PM CDT
Astronomical Twilight 5:35 AM CDT 9:00 PM CDT
Moon 7:24 PM CDT (9/19) 7:20 AM CDT (9/19)
Length of Visible Light 13h 12m
Length of Day
12h 17m
Full, 100% of the Moon is Illuminated
Sep 19
Full
Sep 26
Last Quarter
Oct 4
New
Oct 11
First Quarter
Oct 18
Full

Hourly Weather History & Observations

Time (CDT) Temp. Heat Index Dew Point Humidity Pressure Visibility Wind Dir Wind Speed Gust Speed Precip Events Conditions
12:54 AM 80.1 °F 81.9 °F 64.9 °F 60% 29.65 in 10.0 mi South 11.5 mph 21.9 mph N/A   Clear
1:54 AM 78.1 °F - 64.9 °F 64% 29.66 in 10.0 mi South 10.4 mph - N/A   Clear
2:54 AM 77.0 °F - 64.0 °F 64% 29.66 in 10.0 mi SSE 10.4 mph - N/A   Clear
3:54 AM 75.0 °F - 64.0 °F 69% 29.67 in 10.0 mi SSE 5.8 mph - N/A   Clear
4:54 AM 75.9 °F - 63.0 °F 64% 29.66 in 10.0 mi SSW 10.4 mph - N/A   Clear
5:54 AM 75.0 °F - 63.0 °F 66% 29.67 in 10.0 mi SSW 8.1 mph 17.3 mph N/A   Clear
6:54 AM 69.1 °F - 63.0 °F 81% 29.70 in 10.0 mi South 5.8 mph - N/A   Clear
7:54 AM 72.0 °F - 64.0 °F 76% 29.75 in 10.0 mi West 6.9 mph - N/A   Mostly Cloudy
8:54 AM 72.0 °F - 64.9 °F 78% 29.74 in 10.0 mi SSW 4.6 mph - 0.01 in   Mostly Cloudy
9:54 AM 79.0 °F - 66.0 °F 64% 29.70 in 10.0 mi SSE 4.6 mph - N/A   Clear
10:35 AM 77.0 °F - 66.2 °F 69% 29.82 in 8.0 mi West 11.5 mph 16.1 mph 0.01 in Rain , Thunderstorm Light Rain
10:50 AM 71.6 °F - 64.4 °F 78% 29.84 in 4.0 mi WSW 9.2 mph 21.9 mph 0.05 in Rain Rain
10:54 AM 70.0 °F - 64.9 °F 84% 29.82 in 5.0 mi WSW 10.4 mph 17.3 mph 0.05 in Rain Light Rain
11:54 AM 70.0 °F - 66.9 °F 90% 29.76 in 10.0 mi WNW 6.9 mph - 0.01 in   Mostly Cloudy
12:08 PM 71.6 °F - 66.2 °F 83% 29.84 in 10.0 mi West 8.1 mph - N/A Thunderstorm Scattered Clouds
12:21 PM 71.6 °F - 64.4 °F 78% 29.85 in 10.0 mi WNW 8.1 mph - N/A   Mostly Cloudy
12:51 PM 69.8 °F - 64.4 °F 83% 29.84 in 10.0 mi WNW 6.9 mph - N/A   Scattered Clouds
12:54 PM 70.0 °F - 64.9 °F 84% 29.81 in 10.0 mi WNW 5.8 mph - N/A   Partly Cloudy
1:16 PM 71.6 °F - 64.4 °F 78% 29.85 in 10.0 mi WNW 8.1 mph - 0.00 in Rain Light Rain
1:46 PM 71.6 °F - 64.4 °F 78% 29.84 in 10.0 mi WNW 12.7 mph - 0.00 in   Scattered Clouds
1:54 PM 72.0 °F - 64.9 °F 78% 29.81 in 10.0 mi WNW 10.4 mph - 0.00 in   Scattered Clouds
2:06 PM 75.2 °F - 64.4 °F 69% 29.82 in 10.0 mi NW 12.7 mph - N/A   Mostly Cloudy
2:54 PM 72.0 °F - 63.0 °F 73% 29.81 in 10.0 mi WNW 15.0 mph 24.2 mph N/A   Overcast
3:33 PM 69.8 °F - 62.6 °F 78% 29.85 in 10.0 mi WNW 6.9 mph - 0.00 in Rain Light Rain
3:54 PM 69.1 °F - 63.0 °F 81% 29.82 in 10.0 mi WNW 5.8 mph - 0.01 in Rain Light Rain
4:54 PM 69.1 °F - 62.1 °F 78% 29.79 in 10.0 mi NW 9.2 mph - 0.03 in   Mostly Cloudy
5:54 PM 72.0 °F - 53.1 °F 51% 29.81 in 10.0 mi NW 23.0 mph 34.5 mph 0.01 in   Clear
6:54 PM 68.0 °F - 46.9 °F 47% 29.84 in 10.0 mi North 12.7 mph 23.0 mph N/A   Clear
7:54 PM 64.0 °F - 50.0 °F 60% 29.88 in 10.0 mi NW 8.1 mph - N/A   Mostly Cloudy
8:54 PM 62.1 °F - 51.1 °F 67% 29.91 in 10.0 mi NW 10.4 mph 20.7 mph N/A   Clear
9:54 PM 59.0 °F - 52.0 °F 78% 29.96 in 10.0 mi NW 5.8 mph - N/A   Clear
10:54 PM 55.0 °F - 52.0 °F 89% 29.98 in 10.0 mi Calm Calm - N/A   Clear
11:54 PM 59.0 °F - 53.1 °F 81% 29.99 in 10.0 mi WNW 5.8 mph - N/A   Overcast